Location: Salillas
(41.9950°N, 0.2228°W)
Time: 02:44:44
(UTC+00:00)

Cosmos 2333 Rocket - Pass Details

Date: 29 March 2020
Orbit: 841 x 861 km, 70.8° (Epoch: 31 May)

Event Time Altitude Azimuth Distance (km) Brightness Sun altitude
Rises 18:42:08 0° 228° (SW) 3,401 6.0 -4.2°
Reaches altitude 10° 18:44:47 10° 237° (WSW) 2,466 5.4 -4.7°
Maximum altitude 18:49:57 36° 303° (WNW) 1,322 4.0 -5.7°
Drops below altitude 10° 18:55:08 10° 9° (N) 2,469 4.7 -6.6°
Sets 18:57:48 0° 18° (NNE) 3,406 5.3 -7.1°
